Lapse_Rate
3.9 4.0 4.1 4.0 4.2 4.3 4.6 5.2 5.2 6.5 7.1 7.6 6.6 6.8 7.4 7.2 7.4 7.7 7.8 7.7 7.5 7.7 7.3 7.2 6.7 6.7 6.7 5.9 6.5 6.1 6.0 5.7 5.7 5.7 5.8 5.7 5.4 4.6
4.2 4.4 4.3 4.6 4.7 5.0 5.7 6.5 7.1 7.1 7.3 7.4 7.3 7.0 7.0 7.5 7.6 7.7 7.8 7.9 7.9 7.7 6.9 7.0 6.9 6.6 6.1 6.4 5.8 5.6 5.6 5.6 5.7 5.8 6.0 5.9 5.7 5.0
4.4 4.5 4.8 5.0 5.3 5.9 6.7 7.4 7.4 7.3 7.7 8.3 7.5 7.2 7.1 7.7 7.9 7.7 7.8 7.8 7.9 7.8 7.1 6.2 6.5 6.6 6.6 6.3 6.4 6.1 6.3 5.8 5.7 6.0 6.3 5.9 5.6 5.7
4.7 5.0 5.1 5.2 5.8 6.8 7.4 7.5 7.5 7.7 7.6 7.7 7.9 7.8 7.8 7.7 7.9 7.6 7.8 8.0 7.6 7.7 7.2 6.6 6.1 6.2 5.9 5.9 5.5 5.8 5.6 6.0 5.6 5.6 6.3 6.0 5.7 5.3
5.1 5.1 5.2 5.8 6.7 7.4 7.5 7.6 7.5 7.6 7.7 7.6 7.9 7.8 7.7 7.6 7.7 7.7 7.7 7.8 7.5 7.5 7.3 6.7 6.6 6.2 6.1 5.8 5.6 5.4 5.6 5.2 5.8 5.6 5.8 6.1 5.6 5.3
5.0 5.2 5.7 6.4 7.2 7.5 7.5 7.6 7.6 7.7 7.7 7.6 7.7 7.7 7.6 7.5 7.4 7.4 7.4 7.5 7.4 7.6 7.2 6.8 6.7 6.6 6.2 6.2 6.1 5.6 5.5 5.7 5.3 5.7 5.6 5.9 5.6 5.3
5.4 5.8 6.2 6.9 7.3 7.3 7.4 7.4 7.4 7.4 7.3 7.4 7.4 7.3 7.3 7.3 7.3 7.3 7.2 7.3 7.3 7.6 7.3 7.0 6.7 6.8 6.9 6.5 6.4 5.8 5.5 5.8 5.5 5.3 5.9 5.9 5.7 5.8
5.8 6.2 6.6 7.2 7.4 7.4 7.3 7.3 7.3 7.2 7.2 7.0 7.0 6.9 7.0 7.0 7.0 7.3 7.2 7.4 7.2 7.4 7.5 7.0 6.7 7.0 7.0 6.9 7.0 6.8 6.2 6.3 5.4 5.6 6.3 5.9 5.7 6.1
6.1 6.6 7.2 7.6 7.6 7.6 7.6 7.6 7.4 7.1 6.8 6.6 6.7 6.7 6.7 6.8 6.9 7.3 7.4 7.4 7.4 7.3 7.4 7.2 6.9 7.3 7.1 7.0 7.1 7.0 6.7 6.2 6.7 5.9 5.8 6.0 5.9 6.2
6.5 6.9 7.5 7.7 7.6 7.6 7.7 7.7 7.5 7.0 6.8 6.7 6.7 7.0 7.1 7.1 6.9 7.2 7.3 7.5 7.6 7.6 7.3 7.2 7.4 7.4 7.5 7.8 7.5 7.4 7.4 6.9 7.0 6.6 6.1 6.3 6.2 6.3
6.8 7.1 7.4 7.5 7.4 7.3 7.5 7.5 7.4 7.0 6.9 6.9 7.2 7.3 7.3 7.2 7.2 7.1 7.3 7.5 7.6 7.7 7.3 7.2 7.2 7.4 7.6 7.8 7.6 7.9 7.2 6.7 6.7 6.9 6.6 6.6 6.3 6.5
7.1 7.3 7.2 6.9 6.9 7.0 7.3 7.4 7.3 7.1 7.0 7.3 7.5 7.7 7.7 7.6 7.3 7.2 7.4 7.5 7.4 7.6 7.3 7.1 7.2 7.2 7.4 7.3 7.0 7.2 6.6 6.4 6.0 6.1 6.8 6.8 6.8 6.8
7.0 7.1 6.8 6.8 6.8 6.9 7.1 7.0 7.0 7.0 7.2 7.6 7.8 7.9 7.9 7.9 7.5 7.4 7.4 7.5 7.5 7.4 7.2 7.1 7.0 6.8 6.8 7.0 6.9 6.4 6.5 6.6 6.2 6.4 6.5 6.5 6.6 6.8
7.2 7.1 6.8 6.7 6.8 6.9 6.9 6.9 6.7 7.0 7.3 7.6 7.8 7.9 7.8 7.8 7.8 7.7 7.5 7.5 7.4 6.9 6.5 6.4 6.4 6.2 6.0 6.0 6.2 6.4 6.5 6.6 6.7 6.8 6.5 6.4 6.6 5.8
7.2 6.9 6.7 6.7 6.8 6.9 6.8 6.8 6.7 7.0 7.4 7.5 7.6 7.5 7.3 7.1 7.4 7.3 7.1 6.9 6.9 6.5 6.2 6.0 5.8 5.8 5.9 5.9 6.1 6.3 6.3 6.4 6.5 6.5 6.5 6.2 5.9 5.7
7.0 6.9 6.7 6.5 6.7 6.9 6.7 6.8 6.9 7.2 7.4 7.3 7.1 6.9 6.6 6.5 6.5 6.5 6.5 6.3 6.2 6.1 5.9 5.9 6.1 6.1 6.1 6.1 6.0 6.0 5.9 6.0 5.4 5.6 5.7 5.8 6.1 6.1
6.8 6.8 6.7 6.5 6.7 6.8 6.6 6.7 7.0 7.1 7.3 7.0 6.6 6.1 5.9 5.7 5.7 5.7 5.8 5.9 5.8 5.7 5.8 6.0 6.1 6.2 6.3 6.0 5.7 5.6 5.6 5.6 5.3 5.0 5.6 5.8 6.1 6.2
6.8 6.8 6.6 6.5 6.6 6.7 6.5 6.6 6.7 6.9 6.8 6.6 6.1 5.8 5.6 5.6 5.6 5.7 5.8 5.9 5.9 6.0 6.0 6.0 5.9 6.0 5.9 5.7 5.4 5.3 5.2 5.2 5.3 5.6 5.8 6.1 6.0 5.9
6.7 6.7 6.6 6.5 6.5 6.5 6.4 6.5 6.5 6.6 6.2 6.1 5.8 5.6 5.5 5.6 5.5 5.5 5.7 5.8 5.8 5.9 5.9 5.8 5.7 5.7 5.6 5.1 5.1 5.1 5.1 5.4 5.5 5.4 5.9 5.6 5.7 5.7
6.6 6.6 6.6 6.6 6.5 6.4 6.2 6.3 6.4 6.4 6.1 5.8 5.7 5.5 5.4 5.5 5.5 5.5 5.6 5.6 5.6 5.7 5.6 5.6 5.5 5.5 5.2 5.0 5.0 5.2 5.2 5.6 5.6 5.6 5.8 6.1 6.2 6.0
6.7 6.7 6.6 6.6 6.5 6.4 6.1 6.2 6.5 6.3 6.0 5.7 5.7 5.6 5.6 5.4 5.4 5.4 5.5 5.6 5.6 5.6 5.6 5.6 5.5 5.3 5.2 5.1 5.0 5.1 5.5 5.4 5.5 5.5 5.6 5.7 5.6 5.8
6.7 6.7 6.6 6.6 6.5 6.4 6.2 6.1 6.4 6.3 6.2 5.7 5.6 5.7 5.7 5.7 5.6 5.6 5.6 5.7 5.7 5.6 5.6 5.6 5.6 5.4 5.2 5.1 5.3 5.5 5.7 5.7 5.7 5.7 5.8 5.7 5.8 6.0
6.6 6.6 6.6 6.6 6.5 6.4 6.3 6.1 6.2 6.3 6.1 5.8 5.7 5.7 5.7 5.8 5.8 5.8 5.9 5.9 5.8 5.6 5.5 5.6 5.6 5.6 5.4 5.3 5.4 5.5 5.6 5.6 5.7 5.8 5.9 6.0 6.0 6.0
Wind_Speed
9 10 10 10 10 11 11 12 13 14 16 16 14 15 9 12 15 21 23 21 22 21 19 19 17 20 24 17 23 27 45 44 42 43 43 40 40 40
8 11 11 10 11 11 11 12 12 11 14 13 15 13 8 12 20 24 23 21 20 12 16 22 25 16 19 19 16 24 24 43 45 44 43 43 39 37
9 10 11 12 10 10 10 8 11 12 12 16 14 14 14 13 16 21 21 20 20 11 17 16 20 19 18 17 20 15 22 17 42 42 42 41 40 39
10 11 12 9 12 12 7 12 12 14 12 21 16 14 15 16 14 16 12 17 18 20 13 22 15 17 18 17 19 16 18 20 31 36 38 40 40 38
11 12 12 12 13 11 10 11 12 12 10 12 17 13 13 11 13 12 14 12 13 18 18 18 22 19 19 18 15 16 19 22 25 31 32 35 34 36
11 11 12 13 13 13 13 13 12 11 11 11 12 12 12 13 12 11 10 10 8 12 15 17 18 18 20 19 14 14 23 15 16 30 29 29 33 37
12 12 12 15 16 14 10 13 14 11 10 10 11 11 10 9 11 11 10 11 8 9 9 7 8 10 12 16 13 14 14 16 18 25 35 38 36 37
11 12 12 15 14 14 13 12 12 15 16 12 12 12 13 10 9 9 9 7 5 4 4 8 8 10 9 11 19 20 15 18 22 33 39 40 41 42
11 11 12 10 13 13 13 15 14 16 17 14 16 14 15 12 11 12 11 8 7 6 3 8 4 9 7 13 16 21 17 17 21 30 41 47 46 42
11 12 14 15 14 13 15 13 14 16 14 11 13 14 13 13 11 10 9 6 4 5 4 4 1 3 6 8 21 22 17 17 20 34 40 42 41 41
12 14 14 15 17 19 15 14 14 14 15 21 22 23 22 22 16 8 6 5 6 3 3 2 2 2 2 7 11 20 14 17 23 28 37 45 47 46
13 13 13 13 16 18 14 13 14 14 13 14 11 10 8 8 8 6 5 6 5 4 4 3 2 1 1 4 9 7 3 23 33 39 46 51 50 30
9 10 10 14 18 20 20 13 12 13 14 9 8 7 6 6 5 4 6 6 5 6 2 2 1 1 2 3 6 8 10 14 16 24 36 39 40 36
11 10 11 19 23 21 16 14 14 12 7 7 6 6 5 4 3 4 5 4 3 3 4 3 1 2 3 6 4 5 10 10 12 11 16 30 34 31
10 13 19 19 17 13 11 13 10 6 6 6 6 6 4 4 5 2 2 3 4 4 5 2 1 3 6 7 10 9 12 9 9 11 11 11 12 18
11 12 12 12 10 9 7 5 7 6 6 7 7 6 5 4 2 2 1 2 4 4 7 7 5 4 7 8 10 11 9 7 7 9 11 11 15 18
11 7 8 8 8 8 7 6 6 6 6 6 6 5 4 3 3 2 1 0 4 6 8 9 15 15 10 10 10 9 11 11 10 10 12 11 10 15
9 7 7 7 8 8 8 6 6 6 6 6 5 4 4 3 2 2 1 4 5 6 8 8 10 11 12 15 15 11 10 11 9 10 10 12 10 10
6 7 7 7 8 7 8 7 7 5 6 5 5 4 3 2 2 2 4 5 6 6 6 7 8 8 11 11 6 15 11 10 10 9 9 9 11 9
6 7 7 7 7 7 7 7 7 6 5 4 3 3 3 2 1 3 4 6 7 7 7 6 5 7 10 10 9 9 14 10 10 11 10 10 15 24
8 7 5 7 7 7 7 6 5 5 4 4 3 2 2 1 3 4 5 7 8 7 8 7 9 15 11 9 10 10 10 18 13 11 10 11 10 9
6 7 6 6 6 6 6 5 5 4 3 3 1 1 1 1 4 5 5 6 7 8 9 8 8 9 9 11 12 13 11 11 26 29 26 16 4 6
7 7 7 6 6 6 6 5 5 4 4 2 1 1 1 3 4 6 6 8 9 9 9 8 8 9 10 11 13 10 15 12 9 9 9 17 20 21
Wind_Direction
298 294 292 295 294 292 293 291 289 293 292 296 300 300 282 296 292 313 308 311 326 304 306 303 296 309 298 296 303 309 189 186 195 193 192 192 190 188
297 297 294 294 295 291 289 289 291 291 287 289 294 297 306 306 306 306 300 305 289 294 311 311 303 321 314 316 317 294 224 187 192 191 189 190 183 187
302 301 301 302 300 306 313 305 289 286 283 291 289 291 303 301 294 297 307 305 300 301 319 307 307 316 311 309 294 293 275 262 192 191 189 180 180 178
305 303 303 301 299 296 298 300 295 295 298 293 297 300 293 293 294 297 295 302 297 302 316 301 305 307 303 280 276 284 273 278 213 195 181 177 177 179
305 302 299 301 298 303 302 300 297 297 295 288 292 293 286 289 287 290 289 295 287 308 301 306 308 307 304 293 276 270 277 263 216 176 180 172 178 179
299 300 301 300 302 309 304 297 297 297 301 291 289 294 294 292 288 283 291 293 308 306 305 298 307 316 322 294 268 252 254 256 212 169 161 160 165 159
308 307 309 325 317 298 302 301 301 292 285 284 283 282 283 282 282 285 281 294 298 295 293 301 322 317 312 311 279 257 236 240 204 167 165 154 149 149
305 306 305 301 298 314 290 299 300 302 293 287 287 278 280 274 279 285 279 296 292 264 320 304 309 302 307 303 316 313 262 217 199 182 159 155 148 147
305 308 304 305 308 305 301 297 293 292 277 284 282 275 276 276 280 276 281 271 269 292 321 295 297 295 307 303 307 305 260 229 196 181 161 155 150 147
304 300 303 305 308 318 308 304 296 292 286 282 277 279 271 275 273 274 280 280 281 272 244 271 241 276 323 319 317 304 268 199 187 176 155 143 137 136
310 306 307 304 312 308 305 300 297 292 290 282 272 275 276 274 268 276 264 269 284 260 173 245 210 277 327 336 326 304 246 182 165 159 140 130 127 126
307 308 303 290 294 294 297 296 296 301 304 304 299 289 282 287 283 259 268 260 266 284 170 214 220 275 269 0 353 360 84 136 130 134 131 129 126 122
304 312 316 306 302 299 297 292 288 301 299 290 288 288 285 282 273 260 268 263 252 246 169 221 205 133 51 72 21 36 85 97 109 120 121 121 124 120
309 307 313 313 309 303 301 295 300 299 292 301 301 305 315 317 319 316 294 266 246 251 161 226 268 183 131 116 85 67 74 85 101 107 107 98 99 112
306 303 298 304 302 297 302 307 297 307 308 308 312 318 336 325 306 279 26 64 61 59 87 85 168 139 146 125 122 107 99 81 95 105 103 102 107 115
321 312 309 293 279 282 291 300 312 312 315 314 319 320 316 312 309 337 353 81 84 69 55 56 87 98 112 115 119 113 110 111 100 98 102 97 104 114
315 313 326 327 329 329 324 321 313 325 323 327 323 329 332 337 360 3 323 294 100 96 88 79 76 75 72 98 106 103 108 105 103 107 106 104 105 116
319 328 325 326 326 326 323 321 320 327 336 330 332 340 341 352 8 28 36 93 105 108 108 105 104 100 91 61 63 105 100 104 103 96 97 103 104 106
323 326 322 319 318 321 323 320 320 335 321 324 337 346 349 5 354 70 97 104 102 103 110 121 125 125 116 100 74 62 112 106 104 97 99 103 104 106
319 320 317 315 315 315 320 322 323 326 327 330 336 350 347 351 84 97 98 107 103 100 100 93 110 120 121 116 103 79 81 112 113 109 105 90 90 104
325 320 308 313 310 308 311 312 312 312 327 321 332 341 356 7 99 96 97 98 108 106 96 82 80 94 106 108 102 90 75 78 94 113 127 126 132 142
309 316 308 305 304 302 302 299 297 292 289 281 323 3 39 103 121 122 119 112 103 101 101 111 126 125 123 113 111 110 101 88 79 74 62 60 165 156
307 306 309 296 296 296 292 294 293 296 291 279 263 146 137 133 122 111 114 118 118 115 115 113 112 108 113 117 118 118 121 124 122 100 72 61 76 82